User: anonymous   Login
Location: Tafessasset
(32.5899°N, 5.4824°W)
Time: 06:46:06
(UTC+00:00)
Language:

STARLINK-1050 - Orbit

View from above orbital plane
View from above orbital plane
View from above satellite
View from above satellite

Ground track
Ground track

The orbit data is extracted from the following two-line orbital elements,

1 44755C 19074AU  20153.14995395  .00001980  00000-0  13559-3 0  1538
2 44755  53.0082 327.6836 0001307 105.5639 169.8652 15.05585252    16
Epoch (UTC): 01 June 2020 03:35:56
Eccentricity: 0.0001307
inclination: 53.0082°
perigee height: 549 km
apogee height: 550 km
right ascension of ascending node: 327.6836°
argument of perigee: 105.5639°
revolutions per day: 15.05585252
mean anomaly at epoch: 169.8652°
orbit number at epoch: 1

The dashed part of the orbit path shows where the satellite is in the earth's shadow,  

DLR